Tracking 26492 objects as of 8-Dec-2022
HD Live streaming from Space Station
objects crossing your sky now

COSMOS 1341

Track COSMOS 1341 now!
COSMOS 1341 is classified as:


NORAD ID: 13080
Int'l Code: 1982-016A
Perigee: 3,555.6 km
Apogee: 36,776.6 km
Inclination: 68.6 °
Period: 717.0 minutes
Semi major axis: 26537 km
RCS: 8.091 m2 (large)
Launch date: March 3, 1982
Source: Commonwealth of Independent States (former USSR) (CIS)
Launch site: PLESETSK MISSILE AND SPACE COMPLEX (PKMTR)
aabbcc
Your satellite tracking list
Your tracking list is empty




NASA's NSSDC Master Catalog

Two Line Element Set (TLE):
1 13080U 82016A   22335.42047138  .00000573  00000-0  00000-0 0  9998
2 13080  68.6435  76.0762 6259340 352.1056   1.3888  2.00826817208782
Source of the keplerian elements: AFSPC